Location: Neuvy Saint Sepulchre
(46.5953°N, 1.8122°E)
Time: 08:44:35
(UTC+02:00)

ISS - Pass Details

Date: 28 March 2019
Orbit: 408 x 410 km, 51.6° (Epoch: 25 April)

Event Time Altitude Azimuth Distance (km) Brightness Sun altitude
Rises 22:29:44 0° 295° (WNW) 2,338 1.0 -30.5°
Reaches altitude 10° 22:31:53 10° 301° (WNW) 1,475 -0.2 -30.8°
Enters shadow 22:32:08 12° 302° (WNW) 1,375 -0.3 -30.8°
